Simultaneous Nadir Overpasses (SNOs) Predictions

Prediction of SNOs between NOAA-19 and TERRA Satellite Orbit:

Table of predicted SNOs for the next 14.0 days since TLE Epoch: 7/3/2021
Index Date (NOAA-19) Time (NOAA-19) Lat,Lon (NOAA-19) SZA (NOAA-19 ) Date (TERRA) Time (TERRA) Lat,Lon (TERRA) SZA (TERRA ) Distance(km) Time Diff (sec)
1 07/03/2021 13:50:54 80.32, 5.72 58.99 07/03/2021 13:51:12 80.30, 5.83 58.99 2.53 18
2 07/03/2021 14:41:52 -80.28, 173.58 120.99 07/03/2021 14:40:39 -80.30, 173.44 121.01 3.43 73
3 07/05/2021 19:24:03 -80.32, 102.44 120.82 07/05/2021 19:24:54 -80.30, 102.41 120.81 1.78 51
4 07/05/2021 20:15:02 80.30, -90.04 59.20 07/05/2021 20:14:20 80.31, -89.94 59.19 1.87 42
5 07/08/2021 01:48:12 -80.32, 6.53 120.58 07/08/2021 01:48:02 -80.31, 6.65 120.58 2.38 10
6 07/10/2021 07:21:19 80.31, 103.44 59.70 07/10/2021 07:21:42 80.34, 103.50 59.74 3.08 23
7 07/10/2021 08:12:20 -80.30, -89.07 120.29 07/10/2021 08:11:10 -80.31, -89.14 120.31 1.82 70
8 07/12/2021 12:54:30 -80.32,-159.97 120.01 07/12/2021 12:55:24 -80.34,-159.93 119.97 1.80 54
9 07/12/2021 13:45:28 80.32, 7.28 60.00 07/12/2021 13:44:51 80.30, 7.36 59.97 3.04 37
10 07/14/2021 19:18:39 -80.33, 104.03 119.67 07/14/2021 19:18:33 -80.30, 103.93 119.71 3.40 6
11 07/17/2021 00:51:45 80.34,-159.38 60.69 07/17/2021 00:52:13 80.32,-159.33 60.69 2.51 28



Historial Predications of SNOs between NOAA-19 and TERRA
